WA2GUG Weather Reports


Display with metric or nautical units.
time (UTC)temp
F
wind
direction
speed
MPH
gust
MPH
rain 1hr
in
rain 24hr
in
rain mn
in
humidity
%
barometer
mb
20180717035905 74 11 0.0 1.0 0.00 0.00 0.00 99 1011.0
20180717035405 74 22 0.0 1.0 0.00 0.00 0.00 99 1012.0
20180717034905 74 7 0.0 1.0 0.00 0.00 0.00 99 1012.0
20180717034405 75 52 0.0 1.0 0.00 0.00 0.00 99 1012.0
20180717033905 75 22 0.0 1.0 0.00 0.00 0.00 99 1012.0
20180717033405 75 337 0.0 2.0 0.00 0.00 0.00 99 1012.0
20180717032905 75 337 0.0 2.0 0.00 0.00 0.00 99 1012.0
20180717032405 75 315 0.0 99.0 0.00 0.00 0.00 1012.0
20180717031905 75 56 99.0 99.0 0.00 0.00 0.00 1012.0
20180717031405 75 307 0.0 2.0 0.00 0.00 0.00 1011.0
20180717030906 76 7 1.0 2.0 0.00 0.00 0.00 99 1012.0
20180717030405 76 0.0 2.0 0.00 0.00 0.00 99 1012.0
20180717025906 76 292 1.0 2.0 0.00 0.00 0.00 99 1012.0
20180717025405 76 225 1.0 2.0 0.00 0.00 0.00 99 1011.0
20180717024905 76 337 0.0 2.0 0.00 0.00 0.00 99 1012.0
20180717024405 77 22 1.0 1.0 0.00 0.00 0.00 1012.0
20180717023905 77 112 0.0 1.0 0.00 0.00 0.00 99 1011.0
20180717023405 77 277 0.0 2.0 0.00 0.00 0.00 99 1012.0
20180717022905 77 78 1.0 2.0 0.00 0.00 0.00 99 1012.0
20180717022405 78 101 1.0 2.0 0.00 0.00 0.00 99 1012.0
20180717021905 78 135 1.0 3.0 0.00 0.00 0.00 99 1012.0
20180717021405 78 11 1.0 3.0 0.00 0.00 0.00 99 1012.0
20180717020905 77 1.0 2.0 0.00 0.00 0.00 99 1011.0
20180717020405 77 0.0 2.0 0.00 0.00 0.00 99 1012.0
20180717015905 77 157 1.0 2.0 0.00 0.00 0.00 99 1011.1
20180717015405 78 247 1.0 2.0 0.00 0.00 0.00 99 1012.0
20180717014905 78 1.0 2.0 0.00 0.00 0.00 85 1012.0
20180717014405 78 180 0.0 1.0 0.00 0.00 0.00 99 1012.0
20180717013905 78 202 0.0 2.0 0.00 0.00 0.00 99 1012.0
20180717013405 78 202 1.0 2.0 0.00 0.00 0.00 99 1012.0
20180717012905 78 202 0.0 1.0 0.00 0.00 0.00 99 1011.0
20180717012405 78 202 0.0 1.0 0.00 0.00 0.00 99 1012.0
20180717011904 78 157 0.0 1.0 0.00 0.00 0.00 99 1012.0
20180717011404 79 202 0.0 1.0 0.00 0.00 0.00 98 1012.0
20180717010905 79 225 0.0 3.0 0.00 0.00 0.00 99 1012.0
20180717010405 79 37 1.0 3.0 0.00 0.00 0.00 1012.0
20180717005904 79 292 0.0 2.0 0.00 0.00 0.00 98 1012.0
20180717005404 79 78 1.0 2.0 0.00 0.00 0.00 99 1012.0
20180717004907 79 61 0.0 1.0 0.00 0.00 0.00 97 1011.1
20180717004404 80 56 0.0 3.0 0.00 0.00 0.00 99 1012.0
20180717003904 81 60 2.0 3.0 0.00 0.00 0.00 95 1011.0
20180717003404 81 45 1.0 2.0 0.00 0.00 0.00 96 1011.0
20180717002905 81 67 1.0 2.0 0.00 0.00 0.00 96 1011.0
20180717002404 81 1.0 2.0 0.00 0.00 0.00 95 1011.0
20180717001904 82 90 0.0 2.0 0.00 0.00 0.00 96 1010.0
20180717001404 82 56 1.0 2.0 0.00 0.00 0.00 96 1011.0
20180717000905 82 72 1.0 4.0 0.00 0.00 0.00 95 1007.0
20180717000405 82 56 2.0 4.0 0.00 0.00 0.00 95 1011.0
20180716235904 83 67 1.0 2.0 0.00 0.00 0.00 97 1010.0
20180716235405 83 52 1.0 2.0 0.00 0.00 0.00 96 1011.0
20180716234905 83 56 2.0 2.0 0.00 0.00 0.00 95 1011.0
20180716234404 85 1.0 2.0 0.00 0.00 0.00 93 1011.0
20180716233904 87 45 1.0 2.0 0.00 0.00 0.00 1011.0
20180716233405 89 0.0 2.0 0.00 0.00 0.00 81 1011.0
20180716232905 92 33 1.0 3.0 0.00 0.00 0.00 70 1012.0
20180716232404 93 97 1.0 99.0 0.00 0.00 0.00 1012.0
20180716231905 94 112 199.0 99.0 0.00 0.00 0.00 82 1011.0
20180716231404 93 45 1.0 5.0 0.00 0.00 0.00 86 1012.0
20180716230906 96 247 1.0 5.0 0.00 0.00 0.00 99 1012.0
20180716230405 97 180 1.0 3.0 0.00 0.00 0.00 81 1012.0
20180716225904 97 292 0.0 2.0 0.00 0.00 0.00 1012.0
20180716225404 94 45 1.0 6.0 0.00 0.00 0.00 64 1012.0
20180716224905 93 90 2.0 7.0 0.00 0.00 0.00 93 1011.0
20180716224404 97 2.0 7.0 0.00 0.00 0.00 87 1012.0
20180716223905 101 67 0.0 3.0 0.00 0.00 0.00 76 1012.0
20180716223404 100 247 1.0 3.0 0.00 0.00 0.00 67 1012.0
20180716222905 100 45 1.0 5.0 0.00 0.00 0.00 85 1012.0
20180716222404 100 37 2.0 7.0 0.00 0.00 0.00 88 1012.0
20180716221904 101 270 1.0 7.0 0.00 0.00 0.00 82 1012.0
20180716221404 99 202 1.0 99.0 0.00 0.00 0.00 75 1012.0
20180716220906 98 0 99.0 99.0 0.00 0.00 0.00 86 1012.0
20180716220405 100 90 1.0 2.0 0.00 0.00 0.00 78 1012.0
20180716215905 97 90 0.0 2.0 0.00 0.00 0.00 87 1108.0
20180716215404 97 202 0.0 3.0 0.00 0.00 0.00 69 1012.0
20180716214905 99 247 1.0 5.0 0.00 0.00 0.00 85 1012.0
20180716214404 98 247 2.0 5.0 0.00 0.00 0.00 74 1012.0
20180716213905 97 255 1.0 3.0 0.00 0.00 0.00 1011.0
20180716213404 96 210 1.0 3.0 0.00 0.00 0.00 75 1012.0
20180716212907 99 292 1.0 4.0 0.00 0.00 0.00 87 1012.0
20180716212404 99 292 1.0 4.0 0.00 0.00 0.00 1012.0
20180716211904 97 1.0 3.0 0.00 0.00 0.00 91 1012.0
20180716211404 97 112 1.0 5.0 0.00 0.00 0.00 90 1012.0
20180716210905 94 157 2.0 5.0 0.00 0.00 0.00 99 1012.0
20180716210404 91 22 0.0 1.0 0.00 0.00 0.00 97 1011.0
20180716205904 90 202 0.0 1.0 0.00 0.00 0.00 76 1012.0
20180716205404 90 112 0.0 2.0 0.00 0.00 0.00 96 1012.0
20180716204905 89 236 0.0 2.0 0.00 0.00 0.00 94 1012.0
20180716204404 91 202 0.0 1.0 0.00 0.00 0.00 96 1012.0
20180716203905 88 58 0.0 1.0 0.00 0.00 0.00 97 1012.0
20180716203404 87 45 0.0 1.0 0.00 0.00 0.00 1012.0
20180716202905 87 67 0.0 2.0 0.00 0.00 0.00 95 1011.1
20180716202404 88 240 0.0 3.0 0.00 0.00 0.00 97 1012.0
20180716201905 91 1.0 3.0 0.00 0.00 0.00 1012.0
20180716201404 91 67 1.0 4.0 0.00 0.00 0.00 87 1012.0
20180716200905 94 146 2.0 5.0 0.00 0.00 0.00 85 1012.0
20180716200404 96 202 1.0 5.0 0.00 0.00 0.00 92 1012.0
20180716195904 96 315 1.0 3.0 0.00 0.00 0.00 94 1011.1
20180716195404 92 60 1.0 3.0 0.00 0.00 0.00 87 1012.0
20180716194404 86 135 2.0 9.0 0.00 0.00 0.00 98 1012.0
20180716193904 80 3.0 9.0 0.00 0.00 0.00 99 1011.0
20180716193404 79 90 2.0 5.0 0.00 0.00 0.00 1012.0
20180716192906 79 45 1.0 99.0 0.00 0.00 0.00 1013.0
20180716192404 77 168 199.0 99.0 0.00 0.00 0.00 1013.0
20180716191904 79 202 3.0 9.0 0.00 0.00 0.00 1013.0
20180716191404 80 135 1.0 2.0 0.00 0.00 0.00 99 1013.0
20180716190905 83 135 1.0 99.0 0.00 0.00 0.00 99 1013.0
20180716190404 89 0 99.0 99.0 0.00 0.00 0.00 94 1013.0
20180716185904 92 241 0.0 2.0 0.00 0.00 0.00 75 1013.0
20180716185404 94 270 0.0 0.0 0.00 0.00 0.00 84 1013.0
20180716184905 95 322 0.0 1.0 0.00 0.00 0.00 74 1012.0
20180716184404 96 247 0.0 3.0 0.00 0.00 0.00 85 1013.0
20180716183905 98 90 1.0 3.0 0.00 0.00 0.00 74 1012.0
20180716183404 101 225 1.0 99.0 0.00 0.00 0.00 75 1012.0
20180716182907 105 22 99.0 99.0 0.00 0.00 0.00 66 1013.0
20180716182404 109 307 2.0 5.0 0.00 0.00 0.00 77 1013.0
20180716181904 109 90 2.0 5.0 0.00 0.00 0.00 89 1012.0
20180716180905 105 307 2.0 7.0 0.00 0.00 0.00 65 1012.0
20180716180404 105 217 2.0 7.0 0.00 0.00 0.00 69 1013.0
20180716175404 107 163 2.0 5.0 0.00 0.00 0.00 1013.0
20180716174905 110 270 2.0 5.0 0.00 0.00 0.00 79 1013.0
20180716174404 110 22 1.0 4.0 0.00 0.00 0.00 67 1013.0
20180716173904 109 258 2.0 4.0 0.00 0.00 0.00 81 1013.0
20180716173404 111 247 2.0 4.0 0.00 0.00 0.00 88 1013.0
20180716172905 111 90 1.0 3.0 0.00 0.00 0.00 77 1013.0
20180716171904 109 202 1.0 4.0 0.00 0.00 0.00 74 1013.0
20180716171404 106 90 2.0 4.0 0.00 0.00 0.00 72 1013.0
20180716170404 107 146 1.0 5.0 0.00 0.00 0.00 77 1013.0
20180716165905 109 187 1.0 5.0 0.00 0.00 0.00 61 1013.0
20180716165404 110 97 1.0 5.0 0.00 0.00 0.00 83 1013.0
20180716164906 108 202 1.0 4.0 0.00 0.00 0.00 1013.0
20180716162404 105 22 1.0 3.0 0.00 0.00 0.00 90 1014.0
20180716161904 103 202 1.0 4.0 0.00 0.00 0.00 81 1013.0
20180716161404 101 82 2.0 4.0 0.00 0.00 0.00 1013.0
20180716155904 100 270 2.0 99.0 0.00 0.00 0.00 77 1013.1
20180716155404 101 191 199.0 99.0 0.00 0.00 0.00 87 1011.0
20180716154904 103 78 1.0 3.0 0.00 0.00 0.00 61 1013.0
20180716154404 103 33 1.0 3.0 0.00 0.00 0.00 1014.0
20180716153907 104 1.0 3.0 0.00 0.00 0.00 93 1014.0
20180716153404 102 202 1.0 4.0 0.00 0.00 0.00 82 1013.0
20180716152904 102 56 2.0 4.0 0.00 0.00 0.00 83 1013.0
20180716152404 102 202 1.0 3.0 0.00 0.00 0.00 91 1014.0
20180716151905 102 157 1.0 3.0 0.00 0.00 0.00 82 1013.0
20180716151404 101 157 1.0 3.0 0.00 0.00 0.00 84 1014.0
20180716150905 101 0.0 2.0 0.00 0.00 0.00 81 1013.0
20180716150404 101 225 0.0 0.0 0.00 0.00 0.00 79 1014.0
20180716145904 99 22 0.0 0.0 0.00 0.00 0.00 80 1014.0
20180716145404 99 234 0.0 0.0 0.00 0.00 0.00 86 1014.0
20180716144905 100 67 0.0 0.0 0.00 0.00 0.00 69 1014.0
20180716144404 99 256 0.0 0.0 0.00 0.00 0.00 77 1014.0
20180716143904 99 16 0.0 0.0 0.00 0.00 0.00 71 1014.0
20180716143404 97 45 0.0 0.0 0.00 0.00 0.00 76 1014.0
20180716142905 97 337 0.0 99.0 0.00 0.00 0.00 90 1014.0
20180716142404 98 195 199.0 99.0 0.00 0.00 0.00 87 1014.0
20180716141905 97 202 299.0 99.0 0.00 0.00 0.00 87 1014.0
20180716141404 97 22 0.0 0.0 0.00 0.00 0.00 82 1014.0
20180716140905 97 11 0.0 0.0 0.00 0.00 0.00 86 1014.0
20180716140404 96 7 0.0 0.0 0.00 0.00 0.00 1014.0
20180716135904 97 11 0.0 0.0 0.00 0.00 0.00 1014.0
20180716135404 97 0.0 0.0 0.00 0.00 0.00 85 1014.0
20180716134905 97 0.0 0.0 0.00 0.00 0.00 87 1014.0
20180716134404 95 0 0.0 0.0 0.00 0.00 0.00 89 1014.0
20180716133904 96 22 0.0 0.0 0.00 0.00 0.00 75 1014.0
20180716133404 96 22 0.0 0.0 0.00 0.00 0.00 93 1014.0
20180716132905 96 18 0.0 0.0 0.00 0.00 0.00 92 1013.0
20180716132404 96 0 0.0 0.0 0.00 0.00 0.00 80 1014.0
20180716131904 97 7 0.0 99.0 0.00 0.00 0.00 1013.0
20180716131404 95 22 99.0 99.0 0.00 0.00 0.00 1014.0
20180716130906 96 22 0.0 0.0 0.00 0.00 0.00 74 1014.0
20180716130404 96 9 0.0 0.0 0.00 0.00 0.00 85 1187.0
20180716125905 97 0.0 0.0 0.00 0.00 0.00 87 1013.0
20180716125404 96 11 0.0 0.0 0.00 0.00 0.00 76 1014.0
20180716124905 94 22 0.0 0.0 0.00 0.00 0.00 81 1013.1
20180716124404 91 22 0.0 0.0 0.00 0.00 0.00 82 1014.0
20180716123904 92 22 0.0 0.0 0.00 0.00 0.00 92 1013.0
20180716123404 96 22 0.0 0.0 0.00 0.00 0.00 77 1014.0
20180716122905 93 22 0.0 0.0 0.00 0.00 0.00 77 1014.0
20180716122404 92 22 0.0 0.0 0.00 0.00 0.00 94 1014.0
20180716121940 92 22 0.0 0.0 0.00 0.00 0.00 72 1013.1
20180716121404 90 22 0.0 0.0 0.00 0.00 0.00 89 1014.0
20180716120905 89 16 0.0 0.0 0.00 0.00 0.00 88 1013.1
20180716120404 89 22 0.0 0.0 0.00 0.00 0.00 84 1014.0
20180716115905 88 22 0.0 0.0 0.00 0.00 0.00 1013.0
20180716115404 85 22 0.0 0.0 0.00 0.00 0.00 89 1014.0
20180716114905 83 22 0.0 0.0 0.00 0.00 0.00 91 1014.0
20180716114404 82 15 0.0 0.0 0.00 0.00 0.00 92 1014.0
20180716113905 81 5 0.0 0.0 0.00 0.00 0.00 96 1014.0
20180716113403 80 22 0.0 0.0 0.00 0.00 0.00 84 1014.0
20180716112905 78 337 0.0 0.0 0.00 0.00 0.00 97 1014.0
20180716112404 77 11 0.0 0.0 0.00 0.00 0.00 99 1014.0
20180716111905 74 22 0.0 0.0 0.00 0.00 0.00 99 1014.0
20180716111403 71 22 0.0 0.0 0.00 0.00 0.00 99 1014.0
20180716110905 66 22 0.0 0.0 0.00 0.00 0.00 99 1014.0
20180716110404 66 22 0.0 0.0 0.00 0.00 0.00 99 1014.0
20180716105904 65 19 0.0 0.0 0.00 0.00 0.00 99 1014.0
20180716105404 65 22 0.0 0.0 0.00 0.00 0.00 99 1014.0
20180716104905 65 22 0.0 0.0 0.00 0.00 0.00 99 1014.0
20180716104403 64 0.0 0.0 0.00 0.00 0.00 99 1014.0
20180716103904 64 22 0.0 99.0 0.00 0.00 0.00 99 1014.0
20180716103404 64 22 99.0 99.0 0.00 0.00 0.00 99 1013.1
20180716102905 64 22 0.0 0.0 0.00 0.00 0.00 99 1013.1
20180716102404 64 22 0.0 0.0 0.00 0.00 0.00 99 1014.0
20180716101904 64 22 0.0 0.0 0.00 0.00 0.00 99 1013.0
20180716101403 64 22 0.0 0.0 0.00 0.00 0.00 99 1014.0
20180716100905 64 22 0.0 0.0 0.00 0.00 0.00 99 1013.0
20180716100404 63 22 0.0 0.0 0.00 0.00 0.00 99 1013.0
20180716095904 63 22 0.0 0.0 0.00 0.00 0.00 99 1014.0
20180716095403 63 22 0.0 0.0 0.00 0.00 0.00 99 1014.0
20180716094905 64 22 0.0 99.0 0.00 0.00 0.00 1014.0
20180716094404 64 22 99.0 99.0 0.00 0.00 0.00 1012.0
20180716093904 63 22 0.0 0.0 0.00 0.00 0.00 99 1014.0
20180716093403 63 22 0.0 0.0 0.00 0.00 0.00 99 1014.0
20180716092905 63 22 0.0 0.0 0.00 0.00 0.00 99 1013.0
20180716092403 63 22 0.0 0.0 0.00 0.00 0.00 99 1014.0
20180716091904 64 22 0.0 0.0 0.00 0.00 0.00 99 1014.0
20180716091403 64 22 0.0 0.0 0.00 0.00 0.00 99 1014.0
20180716090905 64 22 0.0 0.0 0.00 0.00 0.00 99 1014.0
20180716090404 64 22 0.0 0.0 0.00 0.00 0.00 99 1014.0
20180716085904 64 22 0.0 0.0 0.00 0.00 0.00 99 1014.0
20180716085403 64 22 0.0 0.0 0.00 0.00 0.00 99 1014.0
20180716084905 64 22 0.0 0.0 0.00 0.00 0.00 99 1014.0
20180716084403 64 4 0.0 0.0 0.00 0.00 0.00 99 1014.0
20180716083904 64 11 0.0 0.0 0.00 0.00 0.00 99 1014.0
20180716083403 64 22 0.0 0.0 0.00 0.00 0.00 1014.0
20180716082905 64 15 0.0 0.0 0.00 0.00 0.00 99 1014.0
20180716082403 64 22 0.0 0.0 0.00 0.00 0.00 99 1012.0
20180716081904 64 22 0.0 0.0 0.00 0.00 0.00 95 1014.0
20180716081403 64 22 0.0 0.0 0.00 0.00 0.00 99 1014.0
20180716080905 64 22 0.0 0.0 0.00 0.00 0.00 99 1014.0
20180716080404 64 22 0.0 0.0 0.00 0.00 0.00 99 1013.1
20180716075904 64 22 0.0 0.0 0.00 0.00 0.00 99 1014.0
20180716075403 64 22 0.0 0.0 0.00 0.00 0.00 89 1014.0
20180716074905 64 22 0.0 0.0 0.00 0.00 0.00 99 1014.0
20180716074403 64 22 0.0 0.0 0.00 0.00 0.00 99 1014.0
20180716073904 64 22 0.0 0.0 0.00 0.00 0.00 99 1014.0
20180716073403 64 22 0.0 0.0 0.00 0.00 0.00 99 1013.1
20180716072905 65 22 0.0 0.0 0.00 0.00 0.00 99 1014.0
20180716072403 65 22 0.0 0.0 0.00 0.00 0.00 99 1014.0
20180716071904 65 22 0.0 0.0 0.00 0.00 0.00 99 1014.0
20180716071403 65 22 0.0 0.0 0.00 0.00 0.00 99 1014.0
20180716070905 65 22 0.0 0.0 0.00 0.00 0.00 99 1014.0
20180716070403 65 22 0.0 0.0 0.00 0.00 0.00 99 1014.0
20180716065904 65 22 0.0 0.0 0.00 0.00 0.00 99 1014.0
20180716065403 65 22 0.0 0.0 0.00 0.00 0.00 99 1014.0
20180716064905 66 22 0.0 0.0 0.00 0.00 0.00 99 1014.0
20180716064403 66 22 0.0 99.0 0.00 0.00 0.00 99 1014.0
20180716063904 66 15 99.0 99.0 0.00 0.00 0.00 89 1014.0
20180716063403 66 22 0.0 0.0 0.00 0.00 0.00 99 1014.0
20180716062905 66 22 0.0 0.0 0.00 0.00 0.00 99 1013.0
20180716062403 66 15 0.0 0.0 0.00 0.00 0.00 99 1014.0
20180716061904 66 22 0.0 0.0 0.00 0.00 0.00 99 1014.0
20180716061403 66 22 0.0 0.0 0.00 0.00 0.00 99 1014.0
20180716060905 67 22 0.0 0.0 0.00 0.00 0.00 99 1014.0
20180716060403 67 22 0.0 0.0 0.00 0.00 0.00 99 1014.0
20180716055904 67 22 0.0 0.0 0.00 0.00 0.00 99 1014.0
20180716055403 67 13 0.0 0.0 0.00 0.00 0.00 99 1183.0
20180716054905 67 11 0.0 0.0 0.00 0.00 0.00 99 1013.0
20180716054403 67 292 0.0 0.0 0.00 0.00 0.00 99 1014.0
20180716053904 67 22 0.0 0.0 0.00 0.00 0.00 99 1014.0
20180716053403 67 337 0.0 0.0 0.00 0.00 0.00 99 1013.1
20180716052905 67 15 0.0 0.0 0.00 0.00 0.00 94 1014.0
20180716052403 67 56 0.0 0.0 0.00 0.00 0.00 99 1014.0
20180716051904 68 348 0.0 0.0 0.00 0.00 0.00 99 1014.0
20180716051403 68 0.0 0.0 0.00 0.00 0.00 99 1014.0
20180716050905 68 354 0.0 0.0 0.00 0.00 0.00 99 1014.0
20180716050403 68 0.0 0.0 0.00 0.00 0.00 99 1014.0
20180716045903 68 337 0.0 0.0 0.00 0.00 0.00 99 1014.0
20180716045403 68 337 0.0 0.0 0.00 0.00 0.00 99 1014.0
20180716044904 68 350 0.0 0.0 0.00 0.00 0.00 99 1014.0
20180716044403 68 337 0.0 0.0 0.00 0.00 0.00 99 1014.0
20180716043903 69 22 0.0 0.0 0.00 0.00 0.00 99 1014.0
20180716043403 69 67 0.0 0.0 0.00 0.00 0.00 1014.0
20180716042904 69 337 0.0 0.0 0.00 0.00 0.00 99 1014.0
20180716041903 69 352 0.0 0.0 0.00 0.00 0.00 99 1013.0
20180716041403 70 337 0.0 0.0 0.00 0.00 0.00 99 1014.0
20180716040904 70 333 0.0 0.0 0.00 0.00 0.00 99 1014.0
20180716040403 70 0 0.0 0.0 0.00 0.00 0.00 99 1014.0